Weather in Streletskoye

Russia / Belgorod Oblast     50°38′40″N   36°28′01″E
temp.,
°C
wind,
m/s
gust,
m/s
humid.,
%
clouds,
%
prec.,
mm/h
press.,
hPa
HPBL,
m
15 april, thu
thu1500:00+11nnw1185100 0.3 101312
03:00+9sw36945 0.5 1014147
06:00+7sw36928 0.0 1014150
09:00+11s456993 0.0 1014568
12:00+14sse455590 0.0 10131362
15:00+14sse565490 0.1 10131580
18:00+11s5772100 0.5 1013594
21:00+9se3793100 2.8 1013339
16 april, fri
fri1600:00+7sse37905 0.7 1013252
03:00+7se388791 0.7 1014372
06:00+6se489570 0.1 1015240
09:00+8sse5881100 0.1 1015638
12:00+9sse6776100 0.1 1016934
15:00+10s6866100 0.4 1016973
18:00+10sse4668100 0.1 1016872
21:00+7se378422 0.1 1017136
17 april, sat
sat1700:00+6s2687100 0.1 1017265
03:00+5ese228967 0.1 101820
06:00+4sse23925 0.0 101851
09:00+8ssw347873 0.0 1019710
12:00+11sw335742 0.1 10191362
15:00+10wsw5555100 0.3 10191162
18:00+11sw445321 0.0 10191165
21:00+6wsw48795 0.0 1020235
18 april, sun
sun1800:00+5wsw369376 0.0 1021160
03:00+5wsw2492100 0.0 1020191
06:00+5wsw3686100 0.0 1019258
09:00+6wsw3578100 0.1 1020329
12:00+9wsw356173 0.0 10191128
15:00+11sw3558100 0.1 10181213
18:00+11sw246199 0.1 1018919
21:00+9nw2376100 0.4 101995
19 april, mon
mon1900:00+7n2286100 0.1 101826
03:00+6n228996 0.1 101816
06:00+6nne229387 0.1 101943
09:00+9ne227999 0.5 1018288
12:00+12ese336279 0.8 10171003
15:00+13se4453100 1.1 10171363
18:00+13e3557100 0.3 1016832
21:00+9ene5126998 0.3 1014290